Home > Weather > Minneapolis > Past weeks

Flag for USA Weather for the Past 2 Weeks in Minneapolis, Minnesota, USA

Now
61 °F

Passing clouds.


Feels Like: 61 °F
Forecast: 47 / 71 °F
Wind: No wind

Location: Minneapolis-St. Paul International Airport

Current Time: May 2, 2016 at 10:03:20 PM

Latest Report: May 2, 2016 at 8:53 PM


Visibility: 10 mi

Pressure: 30.01 "Hg

Humidity: 29%

Dew Point: 28 °F

Location of MinneapolisLocation

Historic Weather in Minneapolis — Graph

°F

Minneapolis Temperature Yesterday

Maximum temperature yesterday: 63 °F (at 5:53 PM)
Minimum temperature yesterday: 42 °F (at 5:53 AM)
Average temperature yesterday: 52 °F

High & Low Weather Summary for the Past Weeks

 TemperatureHumidityPressure
High78 °F (Apr 18, 2:53 PM)100% (Apr 29, 4:53 AM)30.24 "Hg (Apr 29, 4:53 AM)
Low35 °F (Apr 29, 2:53 AM)25% (May 2, 6:53 PM)29.54 "Hg (Apr 25, 7:53 AM)
Average53 °F67%30.01 "Hg
* Reported Apr 17 7:53 PM — May 2 7:53 PM, Minneapolis, Weather by CustomWeather, © 2016

Note: Actual official high and low records may vary slightly from our data, if they occured in-between our weather recording intervals... More about our weather records

Advertising

Minneapolis Weather History for the Previous 24 Hours

Scroll right to see more
 ConditionsComfort  
Time TempWeatherWind HumidityBarometerVisibility
7:53 PM
Mon, May 2
64 °FPassing clouds.7 mph25%30.00 "Hg10 mi
6:53 PM66 °FPassing clouds.7 mph25%30.00 "Hg10 mi
5:53 PM66 °FPassing clouds.7 mph26%30.00 "Hg10 mi
4:53 PM65 °FPassing clouds.N/A27%30.01 "Hg10 mi
3:53 PM64 °FPassing clouds.3 mph30%30.03 "Hg10 mi
2:53 PM64 °FPassing clouds.No wind30%30.05 "Hg10 mi
1:53 PM63 °FPassing clouds.No wind29%30.06 "Hg10 mi
12:53 PM62 °FPassing clouds.No wind30%30.08 "Hg10 mi
11:53 AM62 °FSunny.No wind30%30.10 "Hg10 mi
10:53 AM61 °FSunny.7 mph36%30.11 "Hg10 mi
9:53 AM57 °FSunny.No wind47%30.11 "Hg10 mi
8:53 AM52 °FSunny.No wind57%30.12 "Hg10 mi
7:53 AM48 °FSunny.No wind66%30.13 "Hg10 mi
6:53 AM44 °FClear.No wind73%30.13 "Hg10 mi
5:53 AM41 °FClear.5 mph82%30.12 "Hg10 mi
4:53 AM43 °FClear.No wind76%30.12 "Hg10 mi
3:53 AM43 °FClear.No wind79%30.12 "Hg10 mi
2:53 AM45 °FClear.3 mph71%30.13 "Hg10 mi
1:53 AM49 °FClear.3 mph59%30.13 "Hg10 mi
12:53 AM50 °FClear.3 mph57%30.13 "Hg10 mi
11:53 PM
Sun, May 1
52 °FClear.10 mph53%30.12 "Hg10 mi
10:53 PM54 °FClear.12 mph49%30.11 "Hg10 mi
Weather by CustomWeather, © 2016

See weather overviewHow to use our weather pages